DELTA 1 DEB, 42083

Orbit data source: Space-Track

DELTA 1 DEB, 42083 is space debris in SSO originally from a launch on Sun, 15 Dec 1968 UTC launched from the Air Force Western Test Range (AFWTR). Debris objects in space refer to the collection of defunct objects orbiting the Earth. Examples of debris include non-operational satellites, rocket bodies, and fragments generated from explosions, collisions, or faulty payload assembly.

Loading next visibility...
Identifier
42083, 1968-114K
Orbit
SSO
Last TLE update
6 days ago
Origin
Manufacturer
Aerojet
Mission
Spacecraft
Bus & Motor
Unknown
Mass
Unknown
Launch date (UTC)
1968-12-15 (57 years ago)
Launch vehicle
Unknown
Launch site
Air Force Western Test Range (AFWTR)
Object type
Payload
Rocket body
Debris
Shape & HBR
Unknown
Radar Cross Section
Small (<0.1 m²)

Expand to show TLE details & history

TLE from 6 days ago
0 DELTA 1 DEB
1 42083U 68114K   25176.26272390 -.00000156  00000-0 -28053-3 0  9994
2 42083 101.8824 174.7632 0282460 136.2943 238.6146 13.02102775  1710
Epoch: 2025-06-25T06:18Z
TLE epoch observation values (Epoch: 2025-06-25T06:18:19.344Z)
Latitude
11.89277°
Longitude
164.00857°
Altitude
1,372.381 km
Speed
7.119 km/s
True Right ascension
11h 28m 56s
True Declination
11° 49' 45"
Sunlit
Object was in daylight at epoch
Visualization orbit readout
Latitude
57.09752°
Longitude
154.39935°
Altitude
1,165.185 km
Speed
7.323 km/s
Apparent Right ascension
10h 13m 24s
Apparent Declination
14° 06' 49"
Sunlit
Object is in daylight
Visualization observer readout
Local Sidereal Time
21:42:20
Azimuth
350.739° N
Elevation
-35.489°
Doppler factor
1
Orbital elements
Apogee altitude
1,466.849 km
Perigee altitude
1,035.844 km
Semi-major axis
7,629.483 km
Eccentricity
0.02825
Inclination
101.8824°
RAAN
174.7632°
Arg. of periapsis
136.2943°
True anomaly
Unknown
Mean anomaly
238.6146°
Eccentric anomaly
Unknown
Mean motion
3.25687 °/min
Orbital period
110.54 mins
BSTAR
-0.00028053
Loading maneuver chart data...
Loading SW <> Apogee altitude chart data...
Loading historical data...
Loading historical data...
Loading historical data...
Loading historical data...
Loading historical data...
Loading historical data...
Loading historical data...

DELTA 1 DEB Visibility forecast

Observer location: undefined°, undefined°

Span
Click to sort rows by Start time (UTC) header in descending order
Start Az.
Max El. time (UTC)
Max El. Az.
Max El.
End time (UTC)
End Az.
10 mins2025-07-01 12:13:57.109Z38.504° NE2025-07-01 12:18:57.109Z105.432° ESE31.837°2025-07-01 12:23:57.109Z165.286° S
10 mins2025-07-01 14:02:57.109Z353.982° N2025-07-01 14:06:57.109Z306.061° NW28.848°2025-07-01 14:12:57.109Z236.525° WSW
11 mins2025-07-01 22:48:57.109Z124.036° SE2025-07-01 22:53:57.109Z67.549° E33.192°2025-07-01 22:59:57.109Z358.754° N
12 mins2025-07-02 00:36:57.109Z196.416° SSW2025-07-02 00:42:57.109Z262.384° W31.937°2025-07-02 00:48:57.109Z325.05° NNW
|